sat.trackr.live / text

‹ back to catalog

STARLINK-5953

NORAD 56799 · 2023-078AJ

PAYLOAD ACTIVE UNKNOWN

§ Identity

Operator
Country
US
Launch date
2023-05-31
Launch site
AFWTR
Launch vehicle
Mass (kg)
RCS (m²)

Purposes: comms

External: N2YO · Heavens-Above · Gunter

§ Orbital elements

Epoch: 2026-09-20T22:08:48.095232Z

Period
96.11 min
Inclination
69.9996°
Eccentricity
0.0002868
Mean motion
14.98329714 rev/d
Perigee alt
570.1 km
Apogee alt
574.1 km
Semi-major
6,950.2 km
B*
1.7673e-6
RAAN
212.2224°
Arg perigee
271.4604°
Mean anomaly
88.6227°
Rev number
18,192

§ Raw data

STARLINK-59531 56799U 23078AJ  26263.92277888 -.00000072  00000+0  17673-5 0  99942 56799  69.9996 212.2224 0002868 271.4604  88.6227 14.98329714181921

JSON: /api/v1/satellites/56799 · /tle

For live sub-satellite position, see the globe view (requires WebGL).

§ Visibility from observer

Set your observer location to see the next 7 days of passes ≥ 10°. The values pass through the URL so the page stays shareable.

No JS? Fill the form by hand. The geolocation button needs JavaScript.